SWA5522 KSAN-KBUR

Flight info

Callsign SWA5522
Flight time 0h 33m
Altitude 14000
Route CWARD2 LAX SILEX
Aircraft B738/M-SDE2E3FGHIRWXY/LB1

Departure

Time 2026-04-26 22:57
Airport San Diego International Airport (KSAN)

Arrival

Time 2026-04-26 23:31
Airport Hollywood Burbank/Bob Hope Airport (KBUR)
Time Latitude Longitude Altitude Speed Heading
2026-04-26 22:36 32.73384 -117.19811 20 ft 0 kts 207°
2026-04-26 22:47 32.73391 -117.19807 20 ft 4 kts 210°
2026-04-26 22:48 32.73415 -117.19794 22 ft 4 kts 192°
2026-04-26 22:48 32.73440 -117.19794 22 ft 4 kts 155°
2026-04-26 22:48 32.73458 -117.19812 25 ft 4 kts 108°
2026-04-26 22:48 32.73461 -117.19822 27 ft 2 kts 105°
2026-04-26 22:52 32.73457 -117.19807 25 ft 6 kts 105°
2026-04-26 22:52 32.73439 -117.19723 24 ft 16 kts 104°
2026-04-26 22:52 32.73399 -117.19566 22 ft 23 kts 107°
2026-04-26 22:53 32.73350 -117.19376 21 ft 26 kts 105°
2026-04-26 22:53 32.73302 -117.19178 22 ft 21 kts 103°
2026-04-26 22:53 32.73268 -117.19014 21 ft 20 kts 107°
2026-04-26 22:53 32.73228 -117.18854 24 ft 20 kts 105°
2026-04-26 22:54 32.73187 -117.18682 22 ft 24 kts 107°
2026-04-26 22:54 32.73138 -117.18473 16 ft 28 kts 103°
2026-04-26 22:54 32.73077 -117.18237 15 ft 31 kts 107°
2026-04-26 22:54 32.73018 -117.17994 12 ft 26 kts 106°
2026-04-26 22:55 32.72965 -117.17796 10 ft 24 kts 106°
2026-04-26 22:55 32.72951 -117.17686 11 ft 6 kts 80°
2026-04-26 22:55 32.72952 -117.17677 12 ft 0 kts 78°
2026-04-26 22:55 32.72953 -117.17671 12 ft 4 kts 77°
2026-04-26 22:56 32.72966 -117.17623 13 ft 9 kts 69°
2026-04-26 22:56 32.73023 -117.17605 14 ft 13 kts 305°
2026-04-26 22:56 32.73074 -117.17809 15 ft 60 kts 285°
2026-04-26 22:56 32.73273 -117.18630 16 ft 144 kts 286°
2026-04-26 22:57 32.73566 -117.20040 242 ft 196 kts 283°
2026-04-26 22:57 32.73887 -117.21636 1115 ft 202 kts 279°
2026-04-26 22:57 32.74021 -117.23298 1981 ft 212 kts 279°
2026-04-26 22:57 32.74780 -117.24813 2541 ft 222 kts 319°
2026-04-26 22:58 32.76001 -117.26008 3080 ft 228 kts 314°
2026-04-26 22:58 32.77122 -117.27442 3394 ft 245 kts 308°
2026-04-26 22:58 32.78184 -117.29038 3911 ft 252 kts 305°
2026-04-26 22:58 32.79232 -117.30730 4690 ft 252 kts 303°
2026-04-26 22:59 32.80271 -117.32409 5404 ft 255 kts 305°
2026-04-26 22:59 32.81367 -117.34102 6168 ft 258 kts 305°
2026-04-26 22:59 32.82452 -117.35766 7017 ft 257 kts 305°
2026-04-26 22:59 32.83556 -117.37462 7723 ft 261 kts 304°
2026-04-26 23:00 32.84677 -117.39190 8470 ft 264 kts 304°
2026-04-26 23:00 32.85800 -117.40923 9305 ft 264 kts 304°
2026-04-26 23:00 32.86915 -117.42650 9781 ft 267 kts 304°
2026-04-26 23:00 32.88055 -117.44417 9981 ft 269 kts 304°
2026-04-26 23:01 32.89200 -117.46192 9993 ft 269 kts 304°
2026-04-26 23:01 32.90327 -117.47944 9981 ft 270 kts 304°
2026-04-26 23:01 32.91475 -117.49728 9985 ft 272 kts 304°
2026-04-26 23:01 32.92629 -117.51522 9989 ft 274 kts 304°
2026-04-26 23:02 32.93794 -117.53335 9989 ft 275 kts 304°
2026-04-26 23:02 32.94949 -117.55135 9973 ft 276 kts 304°
2026-04-26 23:02 32.96116 -117.56951 9972 ft 275 kts 304°
2026-04-26 23:02 32.97277 -117.58761 9985 ft 274 kts 304°
2026-04-26 23:03 32.98439 -117.60572 9970 ft 274 kts 304°
2026-04-26 23:03 32.99591 -117.62369 9972 ft 274 kts 304°
2026-04-26 23:03 33.00746 -117.64172 9980 ft 272 kts 304°
2026-04-26 23:03 33.01881 -117.65943 9977 ft 271 kts 304°
2026-04-26 23:04 33.03026 -117.67732 9963 ft 269 kts 304°
2026-04-26 23:04 33.04146 -117.69484 9965 ft 268 kts 304°
2026-04-26 23:04 33.05280 -117.71258 9968 ft 267 kts 304°
2026-04-26 23:04 33.06415 -117.73004 9959 ft 268 kts 307°
2026-04-26 23:05 33.07772 -117.74552 9964 ft 270 kts 315°
2026-04-26 23:05 33.09229 -117.75991 9968 ft 271 kts 316°
2026-04-26 23:05 33.10681 -117.77409 9972 ft 272 kts 316°
2026-04-26 23:05 33.12132 -117.78842 9972 ft 273 kts 316°
2026-04-26 23:06 33.13591 -117.80305 9977 ft 274 kts 316°
2026-04-26 23:06 33.15051 -117.81781 9969 ft 274 kts 315°
2026-04-26 23:06 33.16490 -117.83244 9970 ft 275 kts 315°
2026-04-26 23:06 33.17951 -117.84732 9969 ft 275 kts 315°
2026-04-26 23:07 33.19475 -117.86082 9949 ft 280 kts 330°
2026-04-26 23:07 33.20714 -117.86586 9982 ft 284 kts 341°
2026-04-26 23:07 33.23333 -117.87244 9970 ft 286 kts 343°
2026-04-26 23:07 33.25272 -117.87703 9956 ft 286 kts 343°
2026-04-26 23:08 33.27217 -117.88166 9961 ft 284 kts 343°
2026-04-26 23:08 33.29168 -117.88638 9960 ft 283 kts 343°
2026-04-26 23:08 33.31057 -117.89167 9954 ft 279 kts 333°
2026-04-26 23:08 33.32697 -117.90345 9984 ft 271 kts 320°
2026-04-26 23:09 33.34199 -117.91687 9971 ft 271 kts 319°
2026-04-26 23:09 33.35703 -117.93045 9975 ft 271 kts 319°
2026-04-26 23:09 33.37225 -117.94409 9970 ft 272 kts 319°
2026-04-26 23:09 33.38752 -117.95764 9956 ft 273 kts 319°
2026-04-26 23:10 33.40285 -117.97113 9982 ft 273 kts 319°
2026-04-26 23:10 33.41822 -117.98455 9968 ft 273 kts 319°
2026-04-26 23:10 33.43339 -117.99777 9965 ft 273 kts 319°
2026-04-26 23:10 33.44876 -118.01112 9968 ft 273 kts 319°
2026-04-26 23:11 33.46413 -118.02444 9965 ft 272 kts 319°
2026-04-26 23:11 33.47940 -118.03766 9966 ft 272 kts 319°
2026-04-26 23:11 33.49481 -118.05099 9965 ft 272 kts 319°
2026-04-26 23:11 33.51013 -118.06426 9968 ft 272 kts 319°
2026-04-26 23:12 33.52555 -118.07760 9982 ft 273 kts 320°
2026-04-26 23:12 33.54088 -118.09087 9958 ft 275 kts 320°
2026-04-26 23:12 33.55647 -118.10437 9979 ft 275 kts 320°
2026-04-26 23:12 33.57209 -118.11790 9980 ft 279 kts 320°
2026-04-26 23:13 33.58793 -118.13162 9976 ft 280 kts 320°
2026-04-26 23:13 33.60345 -118.14505 9976 ft 275 kts 320°
2026-04-26 23:13 33.61896 -118.15847 9946 ft 272 kts 320°
2026-04-26 23:13 33.63417 -118.17163 9959 ft 268 kts 320°
2026-04-26 23:14 33.64929 -118.18475 9949 ft 268 kts 320°
2026-04-26 23:14 33.66444 -118.19791 9963 ft 268 kts 320°
2026-04-26 23:14 33.67963 -118.21110 9970 ft 269 kts 320°
2026-04-26 23:14 33.69470 -118.22423 9970 ft 270 kts 320°
2026-04-26 23:15 33.71004 -118.23761 9963 ft 272 kts 319°
2026-04-26 23:15 33.72538 -118.25099 9918 ft 270 kts 319°
2026-04-26 23:15 33.74043 -118.26408 9721 ft 268 kts 319°
2026-04-26 23:15 33.75560 -118.27729 9350 ft 269 kts 320°
2026-04-26 23:16 33.77077 -118.29050 8976 ft 267 kts 320°
2026-04-26 23:16 33.78588 -118.30365 8518 ft 267 kts 320°
2026-04-26 23:16 33.80081 -118.31667 8025 ft 269 kts 320°
2026-04-26 23:16 33.81593 -118.32985 7675 ft 265 kts 320°
2026-04-26 23:17 33.83088 -118.34288 7229 ft 265 kts 321°
2026-04-26 23:17 33.84578 -118.35585 6907 ft 266 kts 320°
2026-04-26 23:17 33.86081 -118.36888 6768 ft 265 kts 320°
2026-04-26 23:17 33.87563 -118.38222 6735 ft 265 kts 321°
2026-04-26 23:18 33.89051 -118.39513 6461 ft 267 kts 321°
2026-04-26 23:18 33.90540 -118.40797 6216 ft 261 kts 321°
2026-04-26 23:18 33.91509 -118.41640 6022 ft 257 kts 320°
2026-04-26 23:18 33.92939 -118.42885 5978 ft 249 kts 321°
2026-04-26 23:19 33.94408 -118.44044 5978 ft 256 kts 326°
2026-04-26 23:19 33.96495 -118.45431 5969 ft 258 kts 329°
2026-04-26 23:19 33.97567 -118.46132 5950 ft 259 kts 328°
2026-04-26 23:19 33.99141 -118.47168 5955 ft 265 kts 329°
2026-04-26 23:20 34.00774 -118.48244 5956 ft 267 kts 328°
2026-04-26 23:20 34.02402 -118.49324 5955 ft 266 kts 328°
2026-04-26 23:20 34.04028 -118.50409 5954 ft 267 kts 328°
2026-04-26 23:20 34.05632 -118.51479 5960 ft 266 kts 328°
2026-04-26 23:21 34.07254 -118.52562 5956 ft 266 kts 328°
2026-04-26 23:21 34.08880 -118.53655 5951 ft 267 kts 327°
2026-04-26 23:21 34.10505 -118.54758 5931 ft 266 kts 329°
2026-04-26 23:21 34.12116 -118.55835 5934 ft 267 kts 328°
2026-04-26 23:22 34.13722 -118.56920 5918 ft 258 kts 324°
2026-04-26 23:22 34.15164 -118.58912 5872 ft 227 kts 288°
2026-04-26 23:22 34.15329 -118.60145 5758 ft 219 kts 267°
2026-04-26 23:22 34.15184 -118.61901 5697 ft 204 kts 262°
2026-04-26 23:23 34.14984 -118.63563 5539 ft 194 kts 262°
2026-04-26 23:23 34.14793 -118.65112 5491 ft 178 kts 261°
2026-04-26 23:23 34.14645 -118.66548 5255 ft 171 kts 267°
2026-04-26 23:23 34.14573 -118.67964 4895 ft 173 kts 268°
2026-04-26 23:24 34.14520 -118.69434 4558 ft 174 kts 274°
2026-04-26 23:24 34.14971 -118.70718 4314 ft 173 kts 306°
2026-04-26 23:24 34.16072 -118.71428 4070 ft 191 kts 342°
2026-04-26 23:24 34.17440 -118.71297 4027 ft 204 kts 16°
2026-04-26 23:25 34.18491 -118.70190 4000 ft 201 kts 61°
2026-04-26 23:25 34.18920 -118.68602 4011 ft 204 kts 77°
2026-04-26 23:25 34.19208 -118.66858 4030 ft 217 kts 79°
2026-04-26 23:25 34.19495 -118.65051 3997 ft 217 kts 82°
2026-04-26 23:26 34.19772 -118.63310 3995 ft 210 kts 83°
2026-04-26 23:26 34.20045 -118.61615 3935 ft 200 kts 84°
2026-04-26 23:26 34.20148 -118.59976 3788 ft 190 kts 94°
2026-04-26 23:26 34.20112 -118.58375 3455 ft 192 kts 96°
2026-04-26 23:27 34.20079 -118.56784 3198 ft 190 kts 96°
2026-04-26 23:27 34.20053 -118.55172 3075 ft 195 kts 95°
2026-04-26 23:27 34.20029 -118.53540 3005 ft 191 kts 96°
2026-04-26 23:27 34.20009 -118.52025 3028 ft 178 kts 94°
2026-04-26 23:28 34.19982 -118.50472 2961 ft 190 kts 95°
2026-04-26 23:28 34.19960 -118.48878 2690 ft 187 kts 94°
2026-04-26 23:28 34.19940 -118.47342 2456 ft 177 kts 94°
2026-04-26 23:28 34.19919 -118.45899 2255 ft 160 kts 94°
2026-04-26 23:29 34.19899 -118.44524 2002 ft 163 kts 94°
2026-04-26 23:29 34.19880 -118.43175 1804 ft 162 kts 95°
2026-04-26 23:29 34.19860 -118.41803 1590 ft 161 kts 96°
2026-04-26 23:29 34.19841 -118.40462 1365 ft 161 kts 95°
2026-04-26 23:30 34.19827 -118.39129 1168 ft 158 kts 90°
2026-04-26 23:30 34.19819 -118.37800 912 ft 157 kts 100°
2026-04-26 23:30 34.19793 -118.36529 745 ft 141 kts 95°
2026-04-26 23:30 34.19766 -118.35484 712 ft 97 kts 85°
2026-04-26 23:31 34.19768 -118.35160 701 ft 21 kts 93°
2026-04-26 23:31 34.19784 -118.35031 700 ft 14 kts 47°
2026-04-26 23:31 34.19845 -118.35016 704 ft 6 kts 340°
2026-04-26 23:31 34.19866 -118.35040 702 ft 2 kts 301°
2026-04-26 23:32 34.19868 -118.35044 702 ft 0 kts 296°
2026-04-26 23:32 34.19872 -118.35070 702 ft 8 kts 277°
2026-04-26 23:32 34.19875 -118.35157 709 ft 12 kts 270°
2026-04-26 23:33 34.19875 -118.35258 710 ft 12 kts 270°
2026-04-26 23:33 34.19876 -118.35361 711 ft 13 kts 270°
2026-04-26 23:33 34.19878 -118.35485 715 ft 15 kts 278°
2026-04-26 23:33 34.19948 -118.35556 717 ft 14 kts 343°
2026-04-26 23:34 34.20052 -118.35587 720 ft 17 kts 346°
2026-04-26 23:34 34.20139 -118.35571 726 ft 12 kts 49°
2026-04-26 23:34 34.20216 -118.35570 731 ft 11 kts 348°
2026-04-26 23:34 34.20257 -118.35554 732 ft 1 kts 56°
2026-04-26 23:35 34.20262 -118.35536 731 ft 2 kts 75°
2026-04-26 23:35 34.20264 -118.35526 732 ft 0 kts 77°